Flag for Portugal Weather past 2 weeks in Setúbal, Portugal

Now
52 °F

Passing clouds.


Feels Like: 49 °F
Forecast: 54 / 69 °F
Wind: 8 mph from North

Location: Lisbon Portela Airport

Current Time: Mar 29, 2015 at 12:45:24 AM

Latest Report: Mar 29, 2015 at 12:00 AM


Visibility: N/A

Pressure: 30.42 "Hg

Humidity: 88%

Dew point: 48 °F

Location of SetúbalLocation

Historic Weather in Setúbal — Graph

°F

Setúbal temperature yesterday

Maximum temperature yesterday: 66 °F (at 1:00 PM)
Minimum temperature yesterday: 52 °F (at 2:00 AM)
Average temperature yesterday: 57 °F

Past Weeks' High & Low Weather Summary

 TemperatureHumidityPressure
High68 °F (Mar 20, 2:00 PM)100% (Mar 17, 8:00 AM)30.45 "Hg (Mar 17, 8:00 AM)
Low46 °F (Mar 15, 11:30 PM)22% (Mar 14, 2:00 PM)29.65 "Hg (Mar 24, 4:30 AM)
Average54 °F73%29.98 "Hg
* Reported Midnight between Mar 13 and Mar 14 — Mar 28 11:30 PM, Setúbal, Weather by CustomWeather, © 2015

Note: Actual official high and low records may vary slightly from our data, if they occured in-between our weather recording intervals... More about our weather records

Advertising

Setúbal weather history for previous 24 hours

 ConditionsComfort  
Time TempWeatherWind HumidityBarometerVisibility
11:30 PM
Sat, Mar 28
52 °FPassing clouds.8 mph82%30.42 "HgN/A
11:00 PM52 °FPassing clouds.9 mph82%30.42 "HgN/A
10:30 PM52 °FPassing clouds.5 mph82%30.42 "HgN/A
10:00 PM52 °FPassing clouds.6 mph82%30.42 "HgN/A
9:00 PM52 °FPassing clouds.5 mph88%30.42 "HgN/A
8:30 PM54 °FPassing clouds.18 mph82%30.42 "HgN/A
8:00 PM54 °FPassing clouds.23 mph82%30.42 "HgN/A
7:30 PM54 °FPassing clouds.18 mph82%30.42 "HgN/A
7:00 PM54 °FPassing clouds.20 mph82%30.42 "HgN/A
6:30 PM55 °FPassing clouds.16 mph77%30.42 "HgN/A
6:00 PM59 °FPassing clouds.21 mph72%30.39 "HgN/A
5:30 PM63 °FPassing clouds.14 mph64%30.39 "HgN/A
5:00 PM64 °FPassing clouds.13 mph56%30.39 "HgN/A
4:30 PM66 °FPassing clouds.10 mph56%30.39 "HgN/A
4:00 PM66 °FPassing clouds.14 mph56%30.39 "HgN/A
3:30 PM64 °FPassing clouds.12 mph64%30.39 "HgN/A
3:00 PM63 °FPassing clouds.14 mph68%30.42 "HgN/A
2:30 PM64 °FPassing clouds.20 mph64%30.39 "HgN/A
2:00 PM64 °FPassing clouds.23 mph64%30.42 "HgN/A
1:30 PM66 °FPassing clouds.12 mph60%30.42 "HgN/A
1:00 PM66 °FPassing clouds.8 mph56%30.42 "HgN/A
12:30 PM63 °FPassing clouds.12 mph68%30.42 "HgN/A
12:00 PM63 °FPassing clouds.16 mph64%30.42 "HgN/A
11:30 AM63 °FPassing clouds.14 mph68%30.45 "HgN/A
11:00 AM63 °FPassing clouds.15 mph68%30.45 "HgN/A
10:30 AM61 °FPassing clouds.10 mph72%30.45 "HgN/A
10:00 AM59 °FPassing clouds.9 mph72%30.42 "HgN/A
9:30 AM57 °FPassing clouds.14 mph82%30.42 "HgN/A
9:00 AM55 °FPassing clouds.13 mph88%30.42 "HgN/A
8:30 AM55 °FPassing clouds.10 mph88%30.42 "HgN/A
8:00 AM54 °FPassing clouds.16 mph94%30.42 "HgN/A
7:30 AM52 °FPassing clouds.12 mph94%30.42 "HgN/A
7:00 AM52 °FPassing clouds.12 mph94%30.39 "HgN/A
6:30 AM52 °FPassing clouds.7 mph94%30.39 "HgN/A
6:00 AM52 °FPassing clouds.6 mph94%30.39 "HgN/A
5:30 AM52 °FClear.10 mph94%30.39 "Hg10 mi
5:00 AM52 °FPassing clouds.7 mph94%30.39 "HgN/A
4:30 AM52 °FPassing clouds.9 mph94%30.39 "HgN/A
4:00 AM52 °FPassing clouds.5 mph94%30.39 "HgN/A
3:30 AM52 °FPassing clouds.7 mph94%30.39 "HgN/A
3:00 AM52 °FPassing clouds.5 mph94%30.39 "HgN/A
2:30 AM52 °FClear.9 mph94%30.39 "Hg10 mi
2:00 AM52 °FPassing clouds.6 mph94%30.39 "HgN/A
1:30 AM54 °FPassing clouds.7 mph88%30.42 "HgN/A
1:00 AM54 °FClear.14 mph88%30.42 "Hg10 mi
12:30 AM54 °FPassing clouds.14 mph88%30.42 "HgN/A
12:00 AM54 °FPassing clouds.14 mph88%30.42 "HgN/A
Weather by CustomWeather, © 2015

See weather overviewHow to use our weather pages